Tracking 25693 objects as of 30-Jun-2022
HD Live streaming from Space Station
objects crossing your sky now

STARLINK-2293

Track STARLINK-2293 now!
10-day predictions
STARLINK-2293 is classified as:


NORAD ID: 47863
Int'l Code: 2021-021D
Perigee: 553.3 km
Apogee: 555.5 km
Inclination: 53.1 °
Period: 95.6 minutes
Semi major axis: 6925 km
RCS: Unknown
Launch date: March 14, 2021
Source: United States (US)
Launch site: AIR FORCE EASTERN TEST RANGE (AFETR)
aabbcc
Your satellite tracking list
Your tracking list is empty




NASA's NSSDC Master Catalog

Two Line Element Set (TLE):
1 47863U 21021D   22181.43767577 -.00001122  00000-0 -56475-4 0  9993
2 47863  53.0538 204.1726 0001540  63.3656 296.7491 15.06381059 72987
Source of the keplerian elements: AFSPC